Weather History for Ogden Hill AFB, UT

Change the Weather History Date:

Friday, January 31, 2014

  Actual Average Record
Temperature  
Mean Temperature 28 °F -  
Max Temperature 33 °F 34 °F 60 °F (2003)
Min Temperature 24 °F 22 °F 10 °F (2001)
Degree Days  
Heating Degree Days 36    
Moisture  
Dew Point 26 °F    
Average Humidity 87    
Maximum Humidity 100    
Minimum Humidity 46    
Precipitation  
Precipitation 0.00 in - - ()
Snow  
Snow 0.00 in - - ()
Snow Depth 6.00 in    
Sea Level Pressure  
Sea Level Pressure 29.80 in    
Wind  
Wind Speed 4 mph (NE)    
Max Wind Speed 10 mph    
Max Gust Speed -    
Visibility 6 miles    
Events Fog    
Averages and records for this station are not official NWS values.
T = Trace of Precipitation, MM = Missing Value Source: NWS Daily Summary

Daily Weather History Graph

Daily Weather History Graph

Search for Another Location

Airport:

Trip Planner

Search our weather history database for the weather conditions in past years. The results will help you decide how hot, cold, wet, or windy it might be!

Date:

Astronomy

Jan. 31, 2014 Rise Set
Actual Time 7:39 AM MST 5:43 PM MST
Civil Twilight 7:10 AM MST 6:12 PM MST
Nautical Twilight 6:37 AM MST 6:45 PM MST
Astronomical Twilight 6:05 AM MST 7:18 PM MST
Moon 7:51 AM MST (1/31) 7:13 PM MST (1/31)
Length of Visible Light 11h 02m
Length of Day
10h 03m
New Moon, 1% of the Moon is Illuminated
Jan 31
New Moon
Feb 6
First Quarter
Feb 14
Full
Feb 22
Last Quarter
Mar 1
New

Hourly Weather History & Observations

Time (MST) Temp. Windchill Dew Point Humidity Pressure Visibility Wind Dir Wind Speed Gust Speed Precip Events Conditions
12:00 AM 32.0 °F 28.7 °F 32.0 °F 100% 29.78 in 10.0 mi West 3.5 mph - N/A   Overcast
12:10 AM 32.0 °F 27.5 °F 32.0 °F 100% 29.78 in 10.0 mi West 4.6 mph - N/A   Mostly Cloudy
12:15 AM 32.0 °F 28.7 °F 32.0 °F 100% 29.78 in 9.0 mi West 3.5 mph - N/A   Mostly Cloudy
12:20 AM 32.0 °F 27.5 °F 32.0 °F 100% 29.78 in 6.0 mi West 4.6 mph - N/A   Mostly Cloudy
12:25 AM 32.0 °F 28.7 °F 30.2 °F 93% 29.78 in 2.0 mi West 3.5 mph - N/A   Mostly Cloudy
12:30 AM 32.0 °F 28.7 °F 30.2 °F 93% 29.78 in 0.5 mi West 3.5 mph - N/A Fog Light Freezing Fog
12:35 AM 32.0 °F 27.5 °F 30.2 °F 93% 29.78 in 0.2 mi West 4.6 mph - N/A Fog Light Freezing Fog
12:40 AM 30.2 °F 25.4 °F 30.2 °F 100% 29.78 in 0.5 mi West 4.6 mph - N/A Fog Light Freezing Fog
12:45 AM 32.0 °F 28.7 °F 32.0 °F 100% 29.78 in 2.0 mi West 3.5 mph - N/A   Mostly Cloudy
12:50 AM 32.0 °F - 32.0 °F 100% 29.78 in 6.0 mi West 2.3 mph - N/A   Overcast
12:55 AM 32.0 °F 28.7 °F 32.0 °F 100% 29.78 in 5.0 mi West 3.5 mph - N/A   Overcast
12:58 AM 31.1 °F 27.7 °F 30.9 °F 99% 29.80 in 5.0 mi West 3.5 mph - 0.00 in   Overcast
1:03 AM 32.0 °F 28.7 °F 32.0 °F 100% 29.78 in 5.0 mi WSW 3.5 mph - N/A   Overcast
1:08 AM 32.0 °F - 32.0 °F 100% 29.78 in 4.0 mi WSW 2.3 mph - N/A   Overcast
1:28 AM 32.0 °F 28.7 °F 32.0 °F 100% 29.77 in 5.0 mi ENE 3.5 mph - N/A   Overcast
1:29 AM 32.0 °F - 32.0 °F 100% 29.77 in 5.0 mi ENE 2.3 mph - N/A   Overcast
1:34 AM 32.0 °F - 32.0 °F 100% 29.77 in 2.5 mi East 1.2 mph - N/A   Mostly Cloudy
1:39 AM 32.0 °F 28.7 °F 32.0 °F 100% 29.77 in 1.8 mi ESE 3.5 mph - N/A   Mostly Cloudy
1:44 AM 32.0 °F 28.7 °F 32.0 °F 100% 29.77 in 2.0 mi East 3.5 mph - N/A   Scattered Clouds
1:49 AM 32.0 °F 28.7 °F 32.0 °F 100% 29.76 in 3.0 mi East 3.5 mph - N/A   Partly Cloudy
1:54 AM 32.0 °F - 32.0 °F 100% 29.77 in 2.0 mi NE 2.3 mph - N/A   Partly Cloudy
1:58 AM 30.2 °F - 30.2 °F 100% 29.78 in 1.2 mi NNE 2.3 mph - N/A   Partly Cloudy
2:08 AM 32.0 °F - 30.2 °F 93% 29.76 in 0.8 mi SE 1.2 mph - N/A   Mist
2:13 AM 30.2 °F - 30.2 °F 100% 29.76 in 0.2 mi Calm Calm - N/A Fog Light Freezing Fog
2:28 AM 28.4 °F - 28.4 °F 100% 29.77 in 0.2 mi Calm Calm - N/A Fog Light Freezing Fog
2:33 AM 30.2 °F - 30.2 °F 100% 29.77 in 0.5 mi Calm Calm - N/A Fog Light Freezing Fog
2:38 AM 30.2 °F - 30.2 °F 100% 29.77 in 2.0 mi NNE 1.2 mph - N/A   Clear
2:43 AM 32.0 °F - 32.0 °F 100% 29.77 in 4.0 mi NE 2.3 mph - N/A   Clear
2:48 AM 32.0 °F - 32.0 °F 100% 29.77 in 5.0 mi NE 2.3 mph - N/A   Clear
2:58 AM 32.0 °F 28.7 °F 30.2 °F 93% 29.78 in 3.0 mi ESE 3.5 mph - N/A   Clear
3:03 AM 26.6 °F 21.2 °F 26.6 °F 100% 29.77 in 0.5 mi ESE 4.6 mph - N/A Fog Light Freezing Fog
3:08 AM 26.6 °F 21.2 °F 24.8 °F 93% 29.77 in 0.5 mi ESE 4.6 mph - N/A Fog Light Freezing Fog
3:13 AM 28.4 °F - 28.4 °F 100% 29.77 in 1.5 mi ESE 2.3 mph - N/A   Mostly Cloudy
3:18 AM 28.4 °F 24.6 °F 28.4 °F 100% 29.77 in 10.0 mi ESE 3.5 mph - N/A   Mostly Cloudy
3:38 AM 28.4 °F 20.4 °F 28.4 °F 100% 29.77 in 10.0 mi ESE 8.1 mph - N/A   Overcast
3:48 AM 28.4 °F 22.2 °F 28.4 °F 100% 29.77 in 10.0 mi ESE 5.8 mph - N/A   Overcast
3:53 AM 30.2 °F 23.4 °F 28.4 °F 93% 29.77 in 10.0 mi ESE 6.9 mph - N/A   Overcast
3:58 AM 29.7 °F 23.7 °F 29.3 °F 99% 29.79 in 10.0 mi ESE 5.8 mph - N/A   Overcast
4:03 AM 30.2 °F 23.4 °F 28.4 °F 93% 29.76 in 10.0 mi ESE 6.9 mph - N/A   Mostly Cloudy
4:18 AM 28.4 °F 21.2 °F 28.4 °F 100% 29.76 in 10.0 mi East 6.9 mph - N/A   Mostly Cloudy
4:23 AM 28.4 °F 20.4 °F 26.6 °F 93% 29.76 in 10.0 mi ESE 8.1 mph - N/A   Scattered Clouds
4:58 AM 27.5 °F 20.2 °F 26.6 °F 96% 29.78 in 10.0 mi East 6.9 mph - N/A   Scattered Clouds
5:03 AM 28.4 °F - 26.6 °F 93% 29.76 in 10.0 mi Variable 2.3 mph - N/A   Mostly Cloudy
5:18 AM 28.4 °F - 26.6 °F 93% 29.75 in 10.0 mi NNE 2.3 mph - N/A   Scattered Clouds
5:58 AM 27.0 °F 20.5 °F 25.9 °F 96% 29.79 in 10.0 mi ESE 5.8 mph - N/A   Scattered Clouds
6:58 AM 27.0 °F 23.0 °F 24.1 °F 89% 29.81 in 10.0 mi Variable 3.5 mph - N/A   Overcast
7:54 AM 26.6 °F 20.0 °F 23.0 °F 86% 29.78 in 10.0 mi SE 5.8 mph - N/A   Overcast
7:58 AM 25.9 °F 19.2 °F 23.5 °F 91% 29.81 in 10.0 mi SE 5.8 mph - N/A   Mostly Cloudy
8:13 AM 26.6 °F 21.2 °F 24.8 °F 93% 29.78 in 4.0 mi ESE 4.6 mph - N/A   Mostly Cloudy
8:23 AM 28.4 °F 23.3 °F 23.0 °F 80% 29.78 in 3.0 mi East 4.6 mph - N/A   Overcast
8:33 AM 28.4 °F 19.1 °F 23.0 °F 80% 29.79 in 0.8 mi ESE 10.4 mph - N/A   Overcast
8:46 AM 28.4 °F 21.2 °F 23.0 °F 80% 29.79 in 0.2 mi SE 6.9 mph - N/A Fog Fog
8:53 AM 28.4 °F 21.2 °F 24.8 °F 86% 29.79 in 0.2 mi SE 6.9 mph - N/A Fog Fog
8:58 AM 28.4 °F 19.7 °F 25.9 °F 90% 29.83 in 0.5 mi ESE 9.2 mph - N/A Fog Fog
9:08 AM 28.4 °F 21.2 °F 24.8 °F 86% 29.80 in 4.0 mi East 6.9 mph - N/A   Overcast
9:28 AM 26.6 °F - 24.8 °F 93% 29.80 in 1.0 mi Variable 2.3 mph - N/A   Overcast
9:46 AM 26.6 °F - 26.6 °F 100% 29.80 in 3.0 mi Calm Calm - N/A   Overcast
9:58 AM 28.0 °F - 26.6 °F 94% 29.83 in 0.5 mi Calm Calm - N/A Fog Fog
10:08 AM 28.4 °F - 26.6 °F 93% 29.80 in 2.0 mi NNW 1.2 mph - N/A   Mostly Cloudy
10:21 AM 30.2 °F 25.4 °F 26.6 °F 86% 29.80 in 5.0 mi NW 4.6 mph - N/A   Mostly Cloudy
10:33 AM 30.2 °F 23.4 °F 28.4 °F 93% 29.80 in 10.0 mi NNW 6.9 mph - N/A   Clear
10:50 AM 32.0 °F 26.4 °F 26.6 °F 80% 29.80 in 6.0 mi NNW 5.8 mph - N/A   Mostly Cloudy
10:58 AM 30.2 °F - 26.4 °F 86% 29.82 in 6.0 mi North 2.3 mph - N/A   Mostly Cloudy
11:58 AM 30.9 °F - 25.2 °F 79% 29.81 in 10.0 mi Variable 2.3 mph - N/A   Mostly Cloudy
12:58 PM 33.1 °F 30.0 °F 25.5 °F 74% 29.80 in 10.0 mi WSW 3.5 mph - N/A   Mostly Cloudy
1:58 PM 32.9 °F 25.3 °F 22.3 °F 65% 29.80 in 10.0 mi NW 9.2 mph - N/A   Clear
2:58 PM 33.4 °F 25.9 °F 18.0 °F 53% 29.81 in 10.0 mi NW 9.2 mph - N/A   Mostly Cloudy
3:03 PM 32.0 °F 24.2 °F 17.6 °F 55% 29.79 in 10.0 mi NW 9.2 mph - N/A   Scattered Clouds
3:08 PM 32.0 °F 24.2 °F 15.8 °F 51% 29.79 in 10.0 mi North 9.2 mph - N/A   Mostly Cloudy
3:23 PM 32.0 °F 26.4 °F 15.8 °F 51% 29.79 in 10.0 mi NNW 5.8 mph - N/A   Scattered Clouds
3:58 PM 32.9 °F 25.3 °F 15.4 °F 49% 29.83 in 10.0 mi NNW 9.2 mph - N/A   Clear
4:58 PM 32.0 °F 24.8 °F 13.5 °F 46% 29.87 in 10.0 mi NNW 8.1 mph - N/A   Mostly Cloudy
5:58 PM 28.9 °F 23.9 °F 15.3 °F 57% 29.89 in 10.0 mi NW 4.6 mph - N/A   Clear
6:58 PM 28.6 °F 23.5 °F 14.7 °F 56% 29.90 in 10.0 mi NNW 4.6 mph - N/A   Clear
7:58 PM 27.9 °F 20.6 °F 15.1 °F 59% 29.91 in 10.0 mi NNW 6.9 mph - N/A   Clear
8:48 PM 26.6 °F 21.2 °F 15.8 °F 64% 29.86 in 10.0 mi NW 4.6 mph - N/A   Mostly Cloudy
8:58 PM 26.6 °F - 16.3 °F 65% 29.91 in 10.0 mi NNW 2.3 mph - N/A   Mostly Cloudy
9:48 PM 24.8 °F 17.9 °F 17.6 °F 74% 29.88 in 10.0 mi NNW 5.8 mph - N/A   Mostly Cloudy
9:58 PM 26.1 °F - 16.9 °F 68% 29.93 in 10.0 mi NNE 2.3 mph - N/A   Mostly Cloudy
10:23 PM 26.6 °F - 17.6 °F 69% 29.88 in 10.0 mi WNW 1.2 mph - N/A   Overcast
10:58 PM 24.6 °F 18.8 °F 15.1 °F 67% 29.93 in 10.0 mi East 4.6 mph - N/A   Overcast
11:58 PM 25.3 °F 21.1 °F 16.0 °F 68% 29.94 in 10.0 mi East 3.5 mph - N/A   Overcast